Total_Precipitation_Accumulation
1.61 1.59 2.23 2.09 1.90 1.80 1.68 1.65 1.51 1.41 1.32 1.15 1.03 0.88 0.81 0.76 0.74 0.74 0.69 0.61 0.59 0.59 0.56 0.64 0.75 0.67 0.66 0.67 0.65 0.70 0.78 0.86 0.81 0.71 0.71 0.75 0.78 0.98 1.14 1.24 1.36 1.34 1.22
1.24 1.55 2.32 2.18 2.00 1.85 1.73 1.69 1.52 1.28 1.09 0.97 0.92 0.84 0.75 0.70 0.72 0.68 0.61 0.56 0.55 0.52 0.53 0.65 0.76 0.76 0.77 0.79 0.82 0.88 0.93 0.91 0.85 0.79 0.91 0.97 0.98 1.10 1.15 1.24 1.52 1.47 1.19
1.14 1.35 1.79 2.25 2.09 1.87 1.74 1.65 1.51 1.30 1.00 0.85 0.79 0.78 0.70 0.62 0.61 0.61 0.61 0.54 0.54 0.54 0.54 0.62 0.72 0.71 0.75 0.81 0.90 0.92 0.96 0.96 0.88 0.99 1.45 1.95 1.56 1.30 1.16 1.24 1.35 1.23 1.09
1.08 1.23 1.42 2.03 1.97 1.86 1.76 1.58 1.57 1.33 0.99 0.86 0.81 0.76 0.67 0.62 0.65 0.71 0.71 0.60 0.57 0.56 0.55 0.57 0.67 0.67 0.68 0.76 0.79 0.81 0.90 0.95 1.01 1.29 1.84 2.30 2.10 1.61 1.40 1.29 1.24 1.18 1.09
1.06 1.23 1.73 2.11 1.82 1.72 1.57 1.49 1.55 1.38 1.14 0.98 0.85 0.75 0.70 0.66 0.67 0.73 0.67 0.65 0.64 0.61 0.64 0.66 0.69 0.69 0.65 0.65 0.68 0.75 0.91 1.14 1.31 1.39 1.73 2.00 2.15 1.84 1.49 1.30 1.24 1.19 1.22
1.07 1.22 1.61 1.82 1.68 1.59 1.49 1.40 1.37 1.37 1.34 1.12 0.93 0.86 0.83 0.78 0.78 0.80 0.79 0.71 0.71 0.73 0.76 0.73 0.69 0.71 0.70 0.69 0.71 0.81 1.01 1.24 1.31 1.41 1.72 1.90 1.92 1.71 1.40 1.28 1.32 1.42 1.47
0.91 1.04 1.32 1.61 1.51 1.43 1.37 1.34 1.26 1.30 1.37 1.23 0.97 0.96 0.97 0.90 0.88 0.90 0.90 0.79 0.80 0.78 0.80 0.82 0.73 0.74 0.72 0.74 0.80 0.92 1.07 1.12 1.11 1.37 1.72 1.98 1.74 1.53 1.41 1.29 1.29 1.53 1.68
0.95 0.93 1.06 1.36 1.42 1.31 1.31 1.38 1.23 1.19 1.27 1.20 1.05 0.99 0.91 0.91 0.94 0.95 0.90 0.85 0.83 0.85 0.85 0.87 0.85 0.78 0.74 0.78 0.88 1.04 1.15 1.06 0.89 1.05 1.27 1.77 2.02 1.84 1.47 1.26 1.28 1.40 1.57
1.29 1.16 1.00 1.03 1.15 1.18 1.23 1.34 1.26 1.18 1.17 1.10 1.13 1.07 1.02 0.99 0.93 0.87 0.86 0.87 0.87 0.88 0.90 0.89 0.83 0.81 0.82 0.85 0.87 0.95 1.06 1.06 0.97 1.00 1.04 1.58 2.01 1.93 1.52 1.26 1.21 1.42 1.54
1.34 1.23 1.06 0.97 0.97 1.03 0.98 1.11 1.29 1.32 1.22 1.10 1.09 1.09 1.08 1.02 0.91 0.84 0.77 0.82 0.88 0.91 0.97 0.96 0.89 0.89 0.90 0.88 0.87 0.93 1.01 0.93 0.80 0.82 1.02 1.46 2.01 2.03 1.76 1.31 1.10 1.13 1.24
1.12 1.06 0.99 0.96 0.97 1.04 1.07 1.06 1.27 1.36 1.25 1.04 0.95 1.00 1.01 0.84 0.83 0.85 0.77 0.93 0.94 1.01 1.06 1.06 1.01 0.98 0.93 0.92 0.96 1.05 0.93 0.73 0.81 0.83 1.07 1.52 1.90 1.97 1.85 1.48 1.12 1.02 1.07
0.87 0.80 0.77 0.77 0.82 0.93 1.02 1.36 1.56 1.36 1.25 0.97 0.96 0.87 0.91 0.97 1.04 0.86 0.83 1.06 1.10 1.15 1.13 1.12 1.15 1.04 0.87 0.74 0.85 0.94 0.80 0.76 0.79 0.79 1.06 1.54 1.82 1.86 1.76 1.55 1.26 1.12 1.13
0.66 0.58 0.55 0.51 0.53 0.61 0.81 1.15 1.44 1.56 1.53 1.44 1.19 0.97 0.97 0.85 0.74 0.69 0.70 0.84 0.94 1.04 1.01 1.03 1.05 0.88 0.79 0.76 0.71 0.69 0.81 0.80 0.87 0.90 1.15 1.53 1.74 1.84 1.76 1.57 1.35 1.24 1.23
0.64 0.58 0.50 0.47 0.43 0.45 0.53 0.71 0.91 1.05 1.14 1.16 1.01 0.91 0.98 0.87 0.77 0.77 0.77 0.77 0.80 0.91 1.04 1.07 1.04 0.90 0.79 0.69 0.65 0.71 0.78 0.79 0.93 1.16 1.34 1.35 1.54 1.78 1.83 1.68 1.49 1.36 1.32
0.73 0.73 0.63 0.51 0.46 0.45 0.49 0.56 0.64 0.79 0.87 0.90 0.93 0.88 0.91 0.92 0.90 0.86 0.79 0.80 0.75 0.84 0.97 1.07 1.02 0.91 0.88 0.81 0.75 0.86 0.93 1.00 1.05 1.12 1.21 1.23 1.41 1.73 1.97 1.95 1.74 1.53 1.43
0.75 0.75 0.73 0.61 0.56 0.51 0.49 0.52 0.55 0.65 0.74 0.78 0.76 0.76 0.86 0.95 0.94 0.91 0.87 0.89 0.87 0.90 1.04 1.04 0.94 0.99 1.01 0.93 0.80 0.81 0.92 0.99 1.06 1.07 1.11 1.21 1.28 1.39 1.82 2.09 2.05 1.87 1.81
0.73 0.69 0.67 0.67 0.66 0.64 0.61 0.59 0.57 0.64 0.74 0.76 0.73 0.68 0.70 0.79 0.84 0.88 0.89 0.90 0.95 1.04 1.11 1.13 0.95 0.99 0.97 0.90 0.84 0.81 0.81 0.85 0.92 0.97 0.93 0.92 1.00 1.15 1.49 1.90 2.20 2.21 2.26
0.59 0.56 0.59 0.60 0.64 0.70 0.71 0.72 0.73 0.73 0.80 0.77 0.76 0.69 0.64 0.69 0.78 0.91 0.92 0.91 0.95 1.08 1.19 1.24 1.14 1.10 1.05 1.01 0.99 0.93 0.84 0.89 0.86 0.90 0.90 0.85 0.98 0.95 1.17 1.39 1.67 1.95 2.25
0.49 0.48 0.51 0.54 0.55 0.66 0.73 0.76 0.84 0.86 0.87 0.85 0.84 0.74 0.71 0.77 0.85 1.02 1.13 1.15 1.15 1.16 1.17 1.12 1.19 1.19 1.17 1.18 1.11 1.06 0.98 0.94 0.97 0.88 0.90 0.94 0.89 0.92 1.03 0.95 1.04 1.27 1.68
0.42 0.42 0.45 0.50 0.52 0.57 0.71 0.82 0.97 1.09 1.05 1.07 1.01 0.89 0.91 1.06 1.19 1.33 1.35 1.43 1.49 1.39 1.37 1.31 1.34 1.27 1.21 1.28 1.17 1.07 0.99 0.91 1.00 1.01 0.99 1.00 0.96 0.90 1.01 0.98 0.98 0.92 1.18
0.33 0.34 0.39 0.42 0.50 0.56 0.62 0.75 0.97 1.24 1.35 1.44 1.40 1.22 1.16 1.28 1.52 1.74 1.71 1.78 1.81 1.71 1.70 1.73 1.92 1.87 1.60 1.36 1.42 1.27 1.07 0.92 1.04 1.08 1.07 1.09 1.10 1.16 1.23 1.15 1.06 1.04 0.93
0.23 0.25 0.30 0.37 0.47 0.54 0.61 0.78 0.94 1.08 1.08 1.26 1.41 1.39 1.30 1.30 1.45 1.59 1.84 1.95 1.89 1.95 2.09 2.10 2.44 2.59 2.13 1.69 1.70 1.86 1.60 1.38 1.11 0.96 1.03 1.05 1.15 1.37 1.38 1.16 1.07 1.03 0.95
0.19 0.20 0.23 0.29 0.40 0.53 0.66 0.88 1.09 1.28 1.36 1.42 1.35 1.43 1.44 1.37 1.41 1.52 1.67 1.83 1.85 1.93 2.04 2.18 2.52 3.02 2.78 2.20 1.94 2.19 1.93 1.70 1.48 1.14 1.00 1.01 1.14 1.39 1.54 1.40 1.28 1.19 1.03
0.20 0.18 0.21 0.29 0.43 0.63 0.84 1.07 1.32 1.52 1.56 1.44 1.48 1.51 1.40 1.34 1.31 1.38 1.52 1.66 1.79 1.82 1.95 2.05 2.18 2.69 3.05 2.73 2.41 2.05 1.72 1.67 1.78 1.56 1.22 1.17 1.21 1.28 1.36 1.34 1.33 1.39 1.27
0.26 0.25 0.32 0.52 0.76 1.00 1.22 1.46 1.73 1.72 1.61 1.52 1.51 1.48 1.43 1.44 1.41 1.40 1.54 1.62 1.64 1.70 1.80 2.13 2.39 2.66 2.87 2.84 2.75 2.54 2.27 1.99 1.67 1.78 1.70 1.46 1.35 1.25 1.26 1.32 1.34 1.39 1.40
0.54 0.67 0.86 1.13 1.32 1.43 1.54 1.69 1.79 1.75 1.75 1.69 1.50 1.41 1.40 1.46 1.52 1.55 1.60 1.62 1.59 1.62 1.73 1.95 2.24 2.45 2.76 2.94 2.84 2.62 2.49 2.36 2.14 2.02 1.78 1.65 1.62 1.43 1.34 1.33 1.27 1.30 1.42